Grand Marais, MN

4:31 AM CDT on September 17, 2019 (GMT -0500)
Grand Marais

Weather History for KGNA - August, 2019

Change the Weather History Date:

Friday, August 23, 2019

  Actual Average (KCKC) Record (KCKC)
Temperature  
Mean Temperature 54 °F -  
Max Temperature 64 °F 68 °F 78 °F (1998)
Min Temperature 46 °F 48 °F 33 °F (2005)
Degree Days  
Heating Degree Days 10    
Growing Degree Days 4 (Base 50)    
Moisture  
Dew Point 49 °F    
Average Humidity 83    
Maximum Humidity 96    
Minimum Humidity 60    
Precipitation  
Precipitation 0.00 in - - ()
Sea Level Pressure  
Sea Level Pressure 30.28 in    
Wind  
Wind Speed 3 mph (North)    
Max Wind Speed 6 mph    
Max Gust Speed -    
Averages and records for this station are not official NWS values.
T = Trace of Precipitation, MM = Missing Value Source: NWS Daily Summary

Daily Weather History Graph

Daily Weather History Graph

Search for Another Location

Airport or City:

Astronomy

Aug. 23, 2019 Rise Set
Actual Time 6:07 AM CDT 7:59 PM CDT
Civil Twilight 5:34 AM CDT 8:32 PM CDT
Nautical Twilight 4:53 AM CDT 9:13 PM CDT
Astronomical Twilight 4:08 AM CDT 9:57 PM CDT
Moon 11:52 PM CDT (8/23) 2:17 PM CDT (8/23)
Length of Visible Light 14h 58m
Length of Day
13h 52m
Waning Gibbous, 49% of the Moon is Illuminated
Aug 23
Waning Gibbous
Aug 30
New
Sep 5
First Quarter
Sep 13
Full
Sep 21
Last Quarter

Hourly Weather History & Observations

Time (CDT) Temp. Windchill Dew Point Humidity Pressure Visibility Wind Dir Wind Speed Gust Speed Precip Events Conditions
12:56 AM 48.9 °F - 46.0 °F 90% 30.22 in - NNW 5.8 mph - N/A   Unknown
1:56 AM 48.0 °F - 45.0 °F 89% 30.22 in - NNW 3.5 mph - N/A   Unknown
2:56 AM 46.9 °F - 44.1 °F 90% 30.22 in - NNW 3.5 mph - N/A   Unknown
3:56 AM 46.0 °F 43.9 °F 44.1 °F 93% 30.23 in - NNW 4.6 mph - N/A   Unknown
4:56 AM 46.0 °F 44.8 °F 44.1 °F 93% 30.26 in - NNW 3.5 mph - N/A   Unknown
5:56 AM 46.0 °F - 44.1 °F 93% 30.28 in - Calm Calm - N/A   Unknown
6:56 AM 48.9 °F - 45.0 °F 86% 30.30 in - NNW 4.6 mph - N/A   Unknown
7:56 AM 51.1 °F - 46.9 °F 86% 30.31 in - Calm Calm - N/A   Unknown
8:56 AM 54.0 °F - 48.9 °F 83% 30.31 in - Calm Calm - N/A   Unknown
9:56 AM 60.1 °F - 46.9 °F 62% 30.30 in - ENE 3.5 mph - N/A   Unknown
10:56 AM 59.0 °F - 45.0 °F 60% 30.30 in - ENE 3.5 mph - N/A   Unknown
11:56 AM 62.1 °F - 50.0 °F 65% 30.30 in - Calm Calm - N/A   Unknown
1:56 PM 59.0 °F - 51.1 °F 75% 30.30 in - Calm Calm - N/A   Unknown
2:56 PM 62.1 °F - 54.0 °F 75% 30.30 in - Calm Calm - N/A   Unknown
3:56 PM 60.1 °F - 54.0 °F 80% 30.29 in - Calm Calm - N/A   Unknown
4:56 PM 63.0 °F - 57.0 °F 81% 30.30 in - Calm Calm - N/A   Unknown
5:56 PM 62.1 °F - 57.0 °F 84% 30.30 in - Calm Calm - N/A   Unknown
6:56 PM 61.0 °F - 55.0 °F 81% 30.27 in - ENE 5.8 mph - N/A   Unknown
7:56 PM 57.0 °F - 52.0 °F 83% 30.28 in - Calm Calm - N/A   Unknown
8:56 PM 53.1 °F - 48.9 °F 86% 30.28 in - NNW 3.5 mph - N/A   Unknown
9:56 PM 51.1 °F - 46.9 °F 86% 30.29 in - NNW 4.6 mph - N/A   Unknown
11:56 PM 50.0 °F - 48.9 °F 96% 30.28 in - North 3.5 mph - N/A   Unknown